| time (UTC) | temp C | wind direction | speed KPH | gust KPH | rain 1hr cm | rain 24hr cm | rain mn cm | humidity % | barometer mb |
| 20260510180059 | 10 | 15 | 6.4 | 17.7 | 0.00 | 0.00 | 0.00 | 63 | 1014.7 |
| 20260510174605 | 10 | 26 | 4.8 | 14.5 | 0.00 | 0.00 | 0.00 | 62 | 1014.8 |
| 20260510173055 | 10 | 35 | 3.2 | 20.9 | 0.00 | 0.00 | 0.00 | 63 | 1014.7 |
| 20260510171619 | 10 | 76 | 4.8 | 22.5 | 0.00 | 0.00 | 0.00 | 62 | 1014.8 |
| 20260510170055 | 10 | 51 | 4.8 | 22.5 | 0.00 | 0.00 | 0.00 | 63 | 1015.0 |
| 20260510164601 | 11 | 18 | 4.8 | 16.1 | 0.00 | 0.00 | 0.00 | 62 | 1015.0 |
| 20260510163104 | 11 | 95 | 4.8 | 17.7 | 0.00 | 0.00 | 0.00 | 63 | 1015.2 |
| 20260510161558 | 11 | 36 | 3.2 | 19.3 | 0.00 | 0.00 | 0.00 | 62 | 1015.4 |
| 20260510160057 | 11 | 54 | 3.2 | 9.7 | 0.00 | 0.00 | 0.00 | 63 | 1015.6 |
| 20260510154600 | 11 | 11 | 4.8 | 14.5 | 0.00 | 0.00 | 0.00 | 63 | 1015.7 |
| 20260510153059 | 11 | 44 | 3.2 | 19.3 | 0.00 | 0.00 | 0.00 | 65 | 1015.8 |
| 20260510151557 | 11 | 32 | 6.4 | 19.3 | 0.00 | 0.00 | 0.00 | 64 | 1015.9 |
| 20260510150056 | 11 | 26 | 4.8 | 16.1 | 0.00 | 0.00 | 0.00 | 65 | 1016.0 |
| 20260510144605 | 11 | 57 | 4.8 | 19.3 | 0.00 | 0.00 | 0.00 | 65 | 1016.2 |
| 20260510143057 | 11 | 18 | 6.4 | 25.7 | 0.00 | 0.00 | 0.00 | 65 | 1016.4 |
| 20260510141556 | 11 | 87 | 6.4 | 20.9 | 0.00 | 0.00 | 0.00 | 64 | 1016.6 |
| 20260510140051 | 11 | 31 | 4.8 | 17.7 | 0.00 | 0.00 | 0.00 | 66 | 1016.6 |
| 20260510134556 | 11 | 47 | 6.4 | 20.9 | 0.00 | 0.00 | 0.00 | 67 | 1016.7 |
| 20260510133102 | 10 | 18 | 3.2 | 19.3 | 0.00 | 0.00 | 0.00 | 69 | 1016.9 |
| 20260510131554 | 10 | 46 | 4.8 | 12.9 | 0.00 | 0.00 | 0.00 | 70 | 1016.9 |
| 20260510130057 | 10 | 27 | 4.8 | 19.3 | 0.00 | 0.00 | 0.00 | 70 | 1017.1 |
| 20260510124555 | 10 | 32 | 6.4 | 27.4 | 0.00 | 0.00 | 0.00 | 69 | 1017.2 |
| 20260510123053 | 10 | 355 | 6.4 | 19.3 | 0.00 | 0.00 | 0.00 | 71 | 1017.2 |
| 20260510121552 | 10 | 360 | 8.0 | 27.4 | 0.00 | 0.00 | 0.00 | 72 | 1017.4 |
| 20260510120054 | 10 | 95 | 3.2 | 20.9 | 0.00 | 0.00 | 0.00 | 73 | 1017.7 |
| 20260510114600 | 10 | 40 | 4.8 | 20.9 | 0.00 | 0.00 | 0.00 | 74 | 1017.8 |
| 20260510113100 | 10 | 32 | 4.8 | 20.9 | 0.00 | 0.00 | 0.00 | 74 | 1017.9 |
| 20260510111555 | 10 | 91 | 4.8 | 22.5 | 0.00 | 0.00 | 0.00 | 74 | 1017.9 |
| 20260510110100 | 10 | 66 | 4.8 | 17.7 | 0.00 | 0.00 | 0.00 | 75 | 1018.0 |
| 20260510104557 | 10 | 34 | 4.8 | 22.5 | 0.00 | 0.00 | 0.00 | 75 | 1018.1 |
| 20260510103056 | 10 | 103 | 8.0 | 22.5 | 0.00 | 0.00 | 0.00 | 77 | 1018.1 |
| 20260510101603 | 10 | 40 | 4.8 | 16.1 | 0.00 | 0.00 | 0.00 | 79 | 1018.4 |
| 20260510100105 | 9 | 50 | 4.8 | 14.5 | 0.00 | 0.00 | 0.00 | 79 | 1018.5 |
| 20260510094559 | 9 | 57 | 3.2 | 22.5 | 0.00 | 0.00 | 0.00 | 80 | 1018.5 |
| 20260510093057 | 9 | 59 | 4.8 | 20.9 | 0.00 | 0.00 | 0.00 | 79 | 1018.3 |
| 20260510091555 | 10 | 23 | 6.4 | 24.1 | 0.00 | 0.00 | 0.00 | 79 | 1018.4 |
| 20260510090055 | 10 | 76 | 4.8 | 16.1 | 0.00 | 0.00 | 0.00 | 79 | 1018.6 |
| 20260510084609 | 10 | 32 | 6.4 | 17.7 | 0.00 | 0.00 | 0.00 | 82 | 1018.6 |
| 20260510083056 | 8 | 42 | 3.2 | 12.9 | 0.00 | 0.00 | 0.00 | 84 | 1018.7 |
| 20260510081604 | 8 | 15 | 6.4 | 16.1 | 0.00 | 0.00 | 0.00 | 85 | 1018.8 |
| 20260510080100 | 8 | 15 | 3.2 | 19.3 | 0.00 | 0.00 | 0.00 | 86 | 1018.8 |
| 20260510074604 | 8 | 109 | 4.8 | 16.1 | 0.00 | 0.00 | 0.00 | 86 | 1018.9 |
| 20260510073058 | 8 | 74 | 6.4 | 20.9 | 0.00 | 0.00 | 0.00 | 86 | 1018.7 |
| 20260510071551 | 8 | 10 | 6.4 | 17.7 | 0.00 | 0.00 | 0.00 | 86 | 1018.7 |
| 20260510070113 | 8 | 5 | 6.4 | 24.1 | 0.00 | 0.00 | 0.00 | 87 | 1018.7 |
| 20260510064558 | 8 | 25 | 6.4 | 19.3 | 0.00 | 0.00 | 0.00 | 87 | 1018.4 |
| 20260510063104 | 8 | 27 | 3.2 | 19.3 | 0.00 | 0.00 | 0.00 | 88 | 1018.4 |
| 20260510061559 | 8 | 49 | 4.8 | 20.9 | 0.00 | 0.00 | 0.00 | 89 | 1018.3 |
| 20260510060059 | 8 | 77 | 3.2 | 17.7 | 0.00 | 0.00 | 0.00 | 89 | 1018.4 |
| 20260510054601 | 8 | 37 | 3.2 | 25.7 | 0.00 | 0.00 | 0.00 | 89 | 1018.2 |
| 20260510053058 | 8 | 17 | 4.8 | 19.3 | 0.00 | 0.00 | 0.00 | 90 | 1018.3 |
| 20260510051608 | 7 | 105 | 4.8 | 16.1 | 0.00 | 0.00 | 0.00 | 90 | 1018.5 |
| 20260510044554 | 7 | 59 | 1.6 | 17.7 | 0.00 | 0.00 | 0.00 | 90 | 1018.4 |
| 20260510043052 | 7 | 42 | 1.6 | 9.7 | 0.00 | 0.00 | 0.00 | 90 | 1018.3 |
| 20260510041553 | 7 | 15 | 1.6 | 8.0 | 0.00 | 0.00 | 0.00 | 89 | 1018.4 |
| 20260510040107 | 7 | 17 | 1.6 | 12.9 | 0.00 | 0.00 | 0.00 | 89 | 1018.4 |
| 20260510034553 | 7 | 5 | 1.6 | 14.5 | 0.00 | 0.00 | 0.00 | 89 | 1018.4 |
| 20260510033100 | 7 | 44 | 4.8 | 14.5 | 0.00 | 0.00 | 0.00 | 89 | 1018.6 |
| 20260510031602 | 7 | 15 | 3.2 | 11.3 | 0.00 | 0.00 | 0.00 | 89 | 1018.8 |
| 20260510030058 | 7 | 41 | 4.8 | 14.5 | 0.00 | 0.00 | 0.00 | 89 | 1018.6 |
| 20260510024554 | 7 | 76 | 3.2 | 17.7 | 0.00 | 0.00 | 0.00 | 89 | 1018.7 |
| 20260510023056 | 7 | 24 | 3.2 | 16.1 | 0.00 | 0.00 | 0.00 | 89 | 1018.9 |
| 20260510021641 | 7 | 36 | 4.8 | 16.1 | 0.00 | 0.00 | 0.00 | 88 | 1019.0 |
| 20260510020058 | 7 | 32 | 4.8 | 19.3 | 0.00 | 0.00 | 0.00 | 88 | 1018.9 |
| 20260510014559 | 8 | 20 | 6.4 | 20.9 | 0.00 | 0.00 | 0.00 | 88 | 1019.0 |
| 20260510013100 | 8 | 0 | 3.2 | 16.1 | 0.00 | 0.00 | 0.00 | 87 | 1018.8 |
| 20260510011556 | 8 | 28 | 3.2 | 16.1 | 0.00 | 0.00 | 0.00 | 87 | 1019.0 |
| 20260510004552 | 8 | 16 | 4.8 | 20.9 | 0.00 | 0.00 | 0.00 | 87 | 1018.8 |
| 20260510003100 | 8 | 94 | 6.4 | 17.7 | 0.00 | 0.00 | 0.00 | 86 | 1018.9 |
| 20260510001553 | 8 | 55 | 3.2 | 17.7 | 0.00 | 0.00 | 0.00 | 86 | 1019.1 |
| 20260510000054 | 8 | 31 | 3.2 | 16.1 | 0.00 | 0.00 | 0.00 | 85 | 1019.1 |
| 20260509234550 | 8 | 0 | 4.8 | 17.7 | 0.00 | 0.00 | 0.00 | 85 | 1019.2 |
| 20260509233052 | 8 | 38 | 6.4 | 16.1 | 0.00 | 0.00 | 0.00 | 84 | 1019.1 |
| 20260509231558 | 8 | 360 | 1.6 | 14.5 | 0.00 | 0.00 | 0.00 | 83 | 1019.1 |
| 20260509230053 | 8 | 11 | 1.6 | 12.9 | 0.00 | 0.00 | 0.00 | 81 | 1019.3 |
| 20260509224552 | 8 | 27 | 3.2 | 16.1 | 0.00 | 0.00 | 0.00 | 77 | 1019.3 |
| 20260509223058 | 8 | 24 | 3.2 | 12.9 | 0.00 | 0.00 | 0.00 | 72 | 1019.2 |
| 20260509221552 | 9 | 0 | 0.0 | 14.5 | 0.00 | 0.00 | 0.00 | 69 | 1019.1 |
| 20260509220056 | 9 | 55 | 3.2 | 16.1 | 0.00 | 0.00 | 0.00 | 67 | 1018.8 |
| 20260509214555 | 10 | 22 | 3.2 | 12.9 | 0.00 | 0.00 | 0.00 | 66 | 1018.5 |
| 20260509213111 | 10 | 12 | 1.6 | 11.3 | 0.00 | 0.00 | 0.00 | 67 | 1018.5 |
| 20260509211602 | 10 | 0 | 0.0 | 1.6 | 0.00 | 0.00 | 0.00 | 66 | 1018.5 |
| 20260509210054 | 11 | 0 | 0.0 | 6.4 | 0.00 | 0.00 | 0.00 | 66 | 1018.4 |
| 20260509204553 | 11 | 0 | 0.0 | 0.0 | 0.00 | 0.00 | 0.00 | 64 | 1018.2 |
| 20260509203053 | 11 | 0 | 0.0 | 0.0 | 0.00 | 0.00 | 0.00 | 63 | 1017.9 |
| 20260509201600 | 11 | 0 | 0.0 | 0.0 | 0.00 | 0.00 | 0.00 | 62 | 1018.0 |
| 20260509200055 | 12 | 0 | 0.0 | 0.0 | 0.00 | 0.00 | 0.00 | 62 | 1018.0 |
| 20260509194601 | 12 | 0 | 0.0 | 0.0 | 0.00 | 0.00 | 0.00 | 60 | 1017.7 |
| 20260509193056 | 13 | 0 | 0.0 | 3.2 | 0.00 | 0.00 | 0.00 | 58 | 1017.8 |
| 20260509191607 | 14 | 0 | 0.0 | 4.8 | 0.00 | 0.00 | 0.00 | 55 | 1017.6 |
| 20260509190054 | 15 | 0 | 1.6 | 6.4 | 0.00 | 0.00 | 0.00 | 54 | 1017.4 |
| 20260509184601 | 15 | 0 | 0.0 | 1.6 | 0.00 | 0.00 | 0.00 | 54 | 1017.2 |
| 20260509183058 | 15 | 0 | 0.0 | 3.2 | 0.00 | 0.00 | 0.00 | 54 | 1016.9 |
| 20260509181601 | 16 | 31 | 0.0 | 4.8 | 0.00 | 0.00 | 0.00 | 51 | 1016.8 |
| 20260509180112 | 16 | 23 | 1.6 | 8.0 | 0.00 | 0.00 | 0.00 | 51 | 1016.6 |